Location: Avoca
(45.7167°N, 74.7000°W)
Time: 21:41:53
(UTC+00:00)

BlueWalker 3 - Visible Passes

Search period start: 20 February 2024 00:00
Search period end: 01 March 2024 00:00
Orbit: 486 x 500 km, 53.2° (Epoch: 20 February)

Date Brightness Start Highest point End Pass type
(mag) Time Alt. Az. Time Alt. Az. Time Alt. Az.
20 Feb 4.6 01:25:24 10° WNW 01:26:44 18° NW 01:26:44 18° NW visible
20 Feb 2.1 23:22:26 10° WSW 23:26:12 68° NNW 23:29:39 12° NE visible
21 Feb 3.8 01:01:41 10° WNW 01:04:09 25° NNW 01:04:09 25° NNW visible
21 Feb 2.1 22:58:42 10° WSW 23:02:28 70° NNW 23:06:15 10° NE visible
22 Feb 3.4 00:37:56 10° WNW 00:41:14 28° N 00:41:30 27° N visible
23 Feb 3.4 00:14:11 10° WNW 00:17:30 28° N 00:18:48 22° NNE visible
23 Feb 5.3 01:53:13 10° NW 01:53:17 10° NW 01:53:17 10° NW visible
23 Feb 3.4 23:50:24 10° WNW 23:53:43 28° N 23:56:04 16° NE visible
24 Feb 4.6 01:29:27 10° NW 01:30:33 16° NW 01:30:33 16° NW visible
24 Feb 3.4 23:26:37 10° WNW 23:29:57 28° N 23:33:16 10° NE visible
25 Feb 3.9 01:05:41 10° NW 01:07:46 23° NNW 01:07:46 23° NNW visible
25 Feb 3.4 23:02:49 10° WNW 23:06:09 28° N 23:09:29 10° NE visible
26 Feb 3.3 00:41:53 10° NW 00:44:59 28° N 00:44:59 28° N visible
27 Feb 3.2 00:18:05 10° NW 00:21:25 28° N 00:22:11 26° NNE visible
27 Feb 5.2 01:56:22 10° NW 01:56:39 12° NW 01:56:39 12° NW visible
27 Feb 3.2 23:54:16 10° NW 23:57:34 28° N 23:59:23 19° NE visible
28 Feb 4.4 01:32:33 10° NW 01:33:51 20° NW 01:33:51 20° NW visible
28 Feb 3.2 23:30:26 10° NW 23:33:44 27° N 23:36:35 12° ENE visible
29 Feb 3.3 01:08:43 10° NW 01:11:04 35° NW 01:11:04 35° NW visible
29 Feb 3.2 23:06:34 10° NW 23:09:52 27° N 23:13:10 10° ENE visible
